Location: Launay
(47.2429°N, 1.5727°E)
Time: 21:21:34
(UTC+00:00)

USA 229 DEB - Pass Details

Date: 19 May 2025
Orbit: 872 x 1339 km, 63.4° (Epoch: 17 June)

Event Time Altitude Azimuth Distance (km) Brightness Sun altitude
Exits shadow 23:20:43 46° 176° (S) 1,259 3.6 -22.4°
Maximum altitude 23:22:22 61° 123° (ESE) 1,091 3.5 -22.5°
Drops below altitude 10° 23:28:56 10° 44° (NE) 2,874 6.5 -22.6°
Sets 23:31:45 0° 42° (NE) 3,905 7.3 -22.6°
